BLY7464 EGSH-EGCC

Flight info

Callsign BLY7464
Flight time 0h 41m
Altitude 22000
Route OTBED
Aircraft A320/M-SDE3FGHIRWY/LB1

Departure

Time 2026-05-06 20:54
Airport Norwich Airport (EGSH)

Arrival

Time 2026-05-06 21:35
Airport Manchester Airport (EGCC)
Time Latitude Longitude Altitude Speed Heading
2026-05-06 20:47 52.67339 1.26995 116 ft 0 kts 69°
2026-05-06 20:50 52.67339 1.26997 116 ft 1 kts 69°
2026-05-06 20:50 52.67352 1.27013 120 ft 3 kts 28°
2026-05-06 20:50 52.67384 1.27012 119 ft 6 kts 349°
2026-05-06 20:50 52.67427 1.26996 117 ft 4 kts 345°
2026-05-06 20:51 52.67428 1.26995 117 ft 0 kts 345°
2026-05-06 20:51 52.67430 1.26994 118 ft 1 kts 345°
2026-05-06 20:51 52.67444 1.26988 119 ft 3 kts 345°
2026-05-06 20:52 52.67473 1.26975 119 ft 5 kts 345°
2026-05-06 20:52 52.67517 1.26956 120 ft 8 kts 345°
2026-05-06 20:52 52.67565 1.26945 121 ft 7 kts 16°
2026-05-06 20:52 52.67581 1.26987 120 ft 7 kts 77°
2026-05-06 20:53 52.67583 1.27039 120 ft 0 kts 88°
2026-05-06 20:53 52.67585 1.27246 116 ft 52 kts 89°
2026-05-06 20:53 52.67593 1.28251 115 ft 119 kts 89°
2026-05-06 20:53 52.67612 1.29867 290 ft 152 kts 87°
2026-05-06 20:54 52.67587 1.31575 1022 ft 145 kts 86°
2026-05-06 20:54 52.67798 1.33125 1757 ft 138 kts 63°
2026-05-06 20:54 52.68388 1.34323 2259 ft 141 kts 39°
2026-05-06 20:54 52.69279 1.35221 2598 ft 158 kts 30°
2026-05-06 20:55 52.70300 1.36042 2971 ft 170 kts 26°
2026-05-06 20:55 52.71451 1.36812 3261 ft 188 kts 23°
2026-05-06 20:55 52.72774 1.37576 3463 ft 215 kts 22°
2026-05-06 20:55 52.74250 1.38494 3831 ft 238 kts 24°
2026-05-06 20:56 52.75826 1.39651 4317 ft 258 kts 27°
2026-05-06 20:56 52.77501 1.40857 5069 ft 264 kts 19°
2026-05-06 20:56 52.79306 1.41415 6020 ft 266 kts
2026-05-06 20:56 52.81137 1.40968 6834 ft 271 kts 335°
2026-05-06 20:57 52.82585 1.38999 7613 ft 275 kts 306°
2026-05-06 20:57 52.83624 1.36325 8439 ft 278 kts 301°
2026-05-06 20:57 52.84583 1.33534 9259 ft 281 kts 300°
2026-05-06 20:57 52.85524 1.30684 9975 ft 284 kts 299°
2026-05-06 20:58 52.86499 1.27730 10321 ft 303 kts 299°
2026-05-06 20:58 52.87561 1.24575 10570 ft 322 kts 300°
2026-05-06 20:58 52.88681 1.21307 11145 ft 329 kts 300°
2026-05-06 20:58 52.89823 1.18002 11816 ft 332 kts 300°
2026-05-06 20:59 52.90964 1.14709 12504 ft 334 kts 300°
2026-05-06 20:59 52.92130 1.11357 13206 ft 337 kts 300°
2026-05-06 20:59 52.93303 1.07983 13887 ft 339 kts 299°
2026-05-06 20:59 52.94480 1.04581 14496 ft 341 kts 299°
2026-05-06 21:00 52.95678 1.01109 15096 ft 344 kts 299°
2026-05-06 21:00 52.96870 0.97654 15690 ft 347 kts 299°
2026-05-06 21:00 52.98071 0.94167 16258 ft 349 kts 299°
2026-05-06 21:00 52.99286 0.90641 16844 ft 352 kts 299°
2026-05-06 21:01 53.00506 0.87089 17417 ft 355 kts 299°
2026-05-06 21:01 53.01715 0.83561 17998 ft 358 kts 299°
2026-05-06 21:01 53.02966 0.79905 18554 ft 360 kts 298°
2026-05-06 21:01 53.04188 0.76331 19076 ft 362 kts 298°
2026-05-06 21:02 53.05453 0.72628 19592 ft 364 kts 298°
2026-05-06 21:02 53.06708 0.68949 20113 ft 367 kts 298°
2026-05-06 21:02 53.07970 0.65238 20604 ft 370 kts 298°
2026-05-06 21:02 53.09238 0.61492 21073 ft 373 kts 298°
2026-05-06 21:03 53.10514 0.57719 21548 ft 376 kts 298°
2026-05-06 21:03 53.11801 0.53912 21934 ft 378 kts 298°
2026-05-06 21:03 53.13053 0.50096 22004 ft 370 kts 296°
2026-05-06 21:03 53.14184 0.46289 22019 ft 365 kts 294°
2026-05-06 21:04 53.15286 0.42522 22015 ft 360 kts 295°
2026-05-06 21:04 53.16421 0.38784 22034 ft 360 kts 296°
2026-05-06 21:04 53.17608 0.35123 22033 ft 359 kts 297°
2026-05-06 21:04 53.18844 0.31491 22033 ft 361 kts 299°
2026-05-06 21:05 53.20124 0.27876 22033 ft 363 kts 300°
2026-05-06 21:05 53.21443 0.24209 22032 ft 364 kts 300°
2026-05-06 21:05 53.22743 0.20587 22033 ft 364 kts 299°
2026-05-06 21:05 53.24031 0.16954 22043 ft 363 kts 299°
2026-05-06 21:06 53.25308 0.13313 22066 ft 363 kts 298°
2026-05-06 21:06 53.26556 0.09715 22069 ft 363 kts 298°
2026-05-06 21:06 53.27816 0.06060 22064 ft 363 kts 298°
2026-05-06 21:06 53.29077 0.02374 22053 ft 370 kts 298°
2026-05-06 21:07 53.30279 -0.01387 22055 ft 365 kts 296°
2026-05-06 21:07 53.31392 -0.05170 22051 ft 361 kts 294°
2026-05-06 21:07 53.32462 -0.08961 22053 ft 361 kts 294°
2026-05-06 21:07 53.33525 -0.12762 22051 ft 361 kts 294°
2026-05-06 21:08 53.34597 -0.16557 22052 ft 360 kts 294°
2026-05-06 21:08 53.35677 -0.20331 22052 ft 360 kts 295°
2026-05-06 21:08 53.36765 -0.24104 22053 ft 359 kts 295°
2026-05-06 21:08 53.37855 -0.27865 22054 ft 359 kts 295°
2026-05-06 21:09 53.38948 -0.31630 22018 ft 358 kts 295°
2026-05-06 21:09 53.40027 -0.35342 21747 ft 350 kts 295°
2026-05-06 21:09 53.41079 -0.38968 21485 ft 342 kts 295°
2026-05-06 21:09 53.42108 -0.42526 21225 ft 334 kts 295°
2026-05-06 21:10 53.43115 -0.46026 20835 ft 331 kts 295°
2026-05-06 21:10 53.44110 -0.49493 20447 ft 328 kts 295°
2026-05-06 21:10 53.45094 -0.52927 20070 ft 325 kts 295°
2026-05-06 21:10 53.46070 -0.56332 19695 ft 322 kts 295°
2026-05-06 21:11 53.47025 -0.59664 19329 ft 320 kts 295°
2026-05-06 21:11 53.47988 -0.63017 18967 ft 318 kts 295°
2026-05-06 21:11 53.48943 -0.66357 18604 ft 316 kts 295°
2026-05-06 21:11 53.49889 -0.69677 18232 ft 314 kts 295°
2026-05-06 21:12 53.50833 -0.72996 17814 ft 314 kts 295°
2026-05-06 21:12 53.51772 -0.76299 17408 ft 313 kts 295°
2026-05-06 21:12 53.52709 -0.79599 17081 ft 310 kts 295°
2026-05-06 21:12 53.53634 -0.82856 17049 ft 310 kts 295°
2026-05-06 21:13 53.54566 -0.86140 17054 ft 311 kts 295°
2026-05-06 21:13 53.55494 -0.89427 17054 ft 311 kts 295°
2026-05-06 21:13 53.56421 -0.92714 17054 ft 311 kts 295°
2026-05-06 21:13 53.57349 -0.96007 17054 ft 311 kts 295°
2026-05-06 21:14 53.58274 -0.99303 17051 ft 311 kts 295°
2026-05-06 21:14 53.59197 -1.02603 17051 ft 311 kts 295°
2026-05-06 21:14 53.60120 -1.05890 17049 ft 310 kts 295°
2026-05-06 21:14 53.60926 -1.09256 17035 ft 311 kts 286°
2026-05-06 21:15 53.61428 -1.12751 16785 ft 309 kts 283°
2026-05-06 21:15 53.61908 -1.16276 16576 ft 308 kts 283°
2026-05-06 21:15 53.62391 -1.19841 16369 ft 308 kts 283°
2026-05-06 21:15 53.62862 -1.23305 16166 ft 306 kts 283°
2026-05-06 21:16 53.63334 -1.26795 15964 ft 305 kts 283°
2026-05-06 21:16 53.63806 -1.30276 15760 ft 305 kts 283°
2026-05-06 21:16 53.64283 -1.33791 15557 ft 304 kts 283°
2026-05-06 21:16 53.64750 -1.37228 15354 ft 304 kts 284°
2026-05-06 21:17 53.65225 -1.40738 15158 ft 302 kts 284°
2026-05-06 21:17 53.65690 -1.44192 14922 ft 302 kts 284°
2026-05-06 21:17 53.66152 -1.47638 14649 ft 301 kts 283°
2026-05-06 21:17 53.66605 -1.51028 14359 ft 300 kts 283°
2026-05-06 21:18 53.67077 -1.54551 14058 ft 299 kts 284°
2026-05-06 21:18 53.67533 -1.57947 13755 ft 297 kts 283°
2026-05-06 21:18 53.67987 -1.61337 13428 ft 295 kts 283°
2026-05-06 21:18 53.68435 -1.64716 13105 ft 294 kts 283°
2026-05-06 21:19 53.68878 -1.68077 12787 ft 293 kts 283°
2026-05-06 21:19 53.69318 -1.71421 12471 ft 291 kts 283°
2026-05-06 21:19 53.69756 -1.74754 12157 ft 290 kts 283°
2026-05-06 21:19 53.70193 -1.78069 11848 ft 289 kts 283°
2026-05-06 21:20 53.70627 -1.81383 11541 ft 289 kts 283°
2026-05-06 21:20 53.70914 -1.83575 11335 ft 288 kts 283°
2026-05-06 21:20 53.71490 -1.87974 10924 ft 286 kts 284°
2026-05-06 21:20 53.71916 -1.91241 10625 ft 284 kts 283°
2026-05-06 21:21 53.72336 -1.94485 10330 ft 281 kts 283°
2026-05-06 21:21 53.72751 -1.97709 10041 ft 279 kts 283°
2026-05-06 21:21 53.73158 -2.00896 9727 ft 278 kts 283°
2026-05-06 21:21 53.73567 -2.04083 9406 ft 277 kts 283°
2026-05-06 21:22 53.73975 -2.07250 9077 ft 275 kts 283°
2026-05-06 21:22 53.74304 -2.10434 8748 ft 275 kts 274°
2026-05-06 21:22 53.74254 -2.13670 8433 ft 275 kts 267°
2026-05-06 21:22 53.74125 -2.16890 8117 ft 274 kts 268°
2026-05-06 21:23 53.73998 -2.20103 7866 ft 274 kts 267°
2026-05-06 21:23 53.73872 -2.23311 7610 ft 274 kts 268°
2026-05-06 21:23 53.73728 -2.26511 7354 ft 273 kts 262°
2026-05-06 21:23 53.73092 -2.29515 7113 ft 273 kts 238°
2026-05-06 21:24 53.71775 -2.31815 7046 ft 276 kts 213°
2026-05-06 21:24 53.70635 -2.32759 7038 ft 276 kts 200°
2026-05-06 21:24 53.68853 -2.33802 7033 ft 265 kts 199°
2026-05-06 21:24 53.67140 -2.34791 6920 ft 258 kts 199°
2026-05-06 21:25 53.65423 -2.35665 6616 ft 258 kts 195°
2026-05-06 21:25 53.63680 -2.36428 6310 ft 259 kts 194°
2026-05-06 21:25 53.61934 -2.37154 5986 ft 258 kts 193°
2026-05-06 21:25 53.60226 -2.37858 5667 ft 248 kts 193°
2026-05-06 21:26 53.58579 -2.38542 5350 ft 240 kts 193°
2026-05-06 21:26 53.56968 -2.39216 5042 ft 238 kts 192°
2026-05-06 21:26 53.55371 -2.39892 4726 ft 236 kts 193°
2026-05-06 21:26 53.53786 -2.40566 4406 ft 235 kts 193°
2026-05-06 21:27 53.52182 -2.41250 4090 ft 236 kts 193°
2026-05-06 21:27 53.50589 -2.41931 3773 ft 236 kts 193°
2026-05-06 21:27 53.49001 -2.42610 3477 ft 235 kts 192°
2026-05-06 21:27 53.47432 -2.43283 3157 ft 235 kts 193°
2026-05-06 21:28 53.45866 -2.43957 2994 ft 231 kts 193°
2026-05-06 21:28 53.44307 -2.44627 2989 ft 232 kts 192°
2026-05-06 21:28 53.42746 -2.45298 2980 ft 226 kts 193°
2026-05-06 21:28 53.41245 -2.45937 2982 ft 221 kts 192°
2026-05-06 21:29 53.39757 -2.46565 2981 ft 221 kts 193°
2026-05-06 21:29 53.38283 -2.47189 2979 ft 214 kts 193°
2026-05-06 21:29 53.36851 -2.47801 2984 ft 212 kts 193°
2026-05-06 21:29 53.35423 -2.48411 2981 ft 211 kts 192°
2026-05-06 21:30 53.33992 -2.49018 2983 ft 211 kts 192°
2026-05-06 21:30 53.32568 -2.49621 2918 ft 212 kts 192°
2026-05-06 21:30 53.31145 -2.50226 2786 ft 210 kts 193°
2026-05-06 21:30 53.29748 -2.50817 2655 ft 208 kts 190°
2026-05-06 21:31 53.28359 -2.50839 2553 ft 195 kts 161°
2026-05-06 21:31 53.27226 -2.49758 2499 ft 185 kts 131°
2026-05-06 21:31 53.26559 -2.47998 2491 ft 179 kts 107°
2026-05-06 21:31 53.26441 -2.45951 2376 ft 178 kts 81°
2026-05-06 21:32 53.26897 -2.44046 2193 ft 175 kts 54°
2026-05-06 21:32 53.28346 -2.41065 1774 ft 157 kts 53°
2026-05-06 21:32 53.29010 -2.39700 1572 ft 144 kts 52°
2026-05-06 21:33 53.29635 -2.38412 1369 ft 138 kts 51°
2026-05-06 21:33 53.30246 -2.37154 1168 ft 139 kts 52°
2026-05-06 21:33 53.30846 -2.35918 971 ft 138 kts 51°
2026-05-06 21:33 53.31448 -2.34678 794 ft 136 kts 52°
2026-05-06 21:34 53.32058 -2.33418 632 ft 137 kts 52°
2026-05-06 21:34 53.32666 -2.32164 468 ft 139 kts 52°
2026-05-06 21:34 53.33302 -2.30834 270 ft 135 kts 51°
2026-05-06 21:34 53.33851 -2.29705 226 ft 96 kts 51°
2026-05-06 21:35 53.34082 -2.29230 230 ft 8 kts 51°
2026-05-06 21:35 53.34142 -2.29109 232 ft 21 kts 50°
2026-05-06 21:35 53.34242 -2.28905 228 ft 25 kts 51°
2026-05-06 21:35 53.34348 -2.28697 224 ft 23 kts 41°
2026-05-06 21:36 53.34476 -2.28555 230 ft 21 kts 24°
2026-05-06 21:36 53.34613 -2.28465 231 ft 21 kts 21°
2026-05-06 21:36 53.34717 -2.28373 230 ft 17 kts 42°
2026-05-06 21:36 53.34779 -2.28260 231 ft 0 kts 50°
2026-05-06 21:37 53.34781 -2.28255 231 ft 1 kts 50°
2026-05-06 21:37 53.34787 -2.28243 231 ft 2 kts 50°
2026-05-06 21:37 53.34804 -2.28210 231 ft 7 kts 50°
2026-05-06 21:37 53.34856 -2.28106 229 ft 17 kts 50°
2026-05-06 21:38 53.34935 -2.27977 231 ft 9 kts
2026-05-06 21:38 53.34963 -2.27986 231 ft 11 kts 344°
2026-05-06 21:38 53.35051 -2.28090 234 ft 17 kts 322°
2026-05-06 21:38 53.35158 -2.28197 230 ft 18 kts
2026-05-06 21:39 53.35284 -2.28180 232 ft 18 kts
2026-05-06 21:39 53.35399 -2.28164 236 ft 18 kts
2026-05-06 21:39 53.35526 -2.28086 235 ft 20 kts 36°
2026-05-06 21:39 53.35600 -2.27948 239 ft 12 kts 52°
2026-05-06 21:40 53.35665 -2.27886 243 ft 10 kts 14°
2026-05-06 21:40 53.35730 -2.27873 246 ft 9 kts
2026-05-06 21:40 53.35786 -2.27864 249 ft 7 kts
2026-05-06 21:40 53.35830 -2.27858 252 ft 5 kts
2026-05-06 21:41 53.35861 -2.27853 253 ft 4 kts
2026-05-06 21:41 53.35878 -2.27851 254 ft 4 kts
2026-05-06 21:41 53.35918 -2.27845 255 ft 8 kts
2026-05-06 21:41 53.36033 -2.27885 255 ft 17 kts
2026-05-06 21:42 53.36116 -2.27932 255 ft 21 kts 322°
2026-05-06 21:42 53.36245 -2.28120 255 ft 28 kts 314°
2026-05-06 21:42 53.36387 -2.28359 255 ft 30 kts 313°
2026-05-06 21:42 53.36437 -2.28521 255 ft 12 kts 315°
2026-05-06 21:43 53.36503 -2.28631 255 ft 15 kts 315°
2026-05-06 21:43 53.36580 -2.28760 255 ft 17 kts 315°
2026-05-06 21:43 53.36670 -2.28714 255 ft 16 kts 45°
2026-05-06 21:43 53.36756 -2.28572 255 ft 19 kts 44°
2026-05-06 21:44 53.36820 -2.28466 255 ft 8 kts 44°
2026-05-06 21:44 53.36836 -2.28450 255 ft 2 kts 10°
2026-05-06 21:44 53.36858 -2.28464 255 ft 4 kts 328°
2026-05-06 21:44 53.36885 -2.28508 255 ft 6 kts 314°
2026-05-06 21:45 53.36897 -2.28528 255 ft 1 kts 314°
2026-05-06 21:45 53.36898 -2.28530 255 ft 0 kts 314°